Year,Month,Day,Hour,Minute,Value (Times are PST for windspeed in km/hr)
2017,01,10,00,00,11.30
2017,01,10,00,01,16.60
2017,01,10,00,02,12.90
2017,01,10,00,03,12.80
2017,01,10,00,04,13.10
2017,01,10,00,05,13.90
2017,01,10,00,06,12.50
2017,01,10,00,07,10.50
2017,01,10,00,08,8.10
2017,01,10,00,09,8.10
2017,01,10,00,10,8.10
2017,01,10,00,11,8.10
2017,01,10,00,12,8.10
2017,01,10,00,13,12.70
2017,01,10,00,14,11.10
2017,01,10,00,15,12.70
2017,01,10,00,16,10.20
2017,01,10,00,17,17.80
2017,01,10,00,18,11.10
2017,01,10,00,19,14.10
2017,01,10,00,20,9.40
2017,01,10,00,21,9.00
2017,01,10,00,22,10.80
2017,01,10,00,23,11.60
2017,01,10,00,24,10.00
2017,01,10,00,25,11.30
2017,01,10,00,26,14.60
2017,01,10,00,27,13.40
2017,01,10,00,28,14.60
2017,01,10,00,29,13.90
2017,01,10,00,30,12.00
2017,01,10,00,31,12.30
2017,01,10,00,32,10.40
2017,01,10,00,33,9.90
2017,01,10,00,34,11.20
2017,01,10,00,35,7.20
2017,01,10,00,36,9.50
2017,01,10,00,37,13.10
2017,01,10,00,38,10.40
2017,01,10,00,39,12.00
2017,01,10,00,40,9.00
2017,01,10,00,41,7.60
2017,01,10,00,42,9.70
2017,01,10,00,43,7.70
2017,01,10,00,44,13.90
2017,01,10,00,45,12.50
2017,01,10,00,46,11.00
2017,01,10,00,47,12.90
2017,01,10,00,48,14.90
2017,01,10,00,49,11.00
2017,01,10,00,50,10.90
2017,01,10,00,51,10.60
2017,01,10,00,52,10.60
2017,01,10,00,53,12.20
2017,01,10,00,54,13.70
2017,01,10,00,55,13.80
2017,01,10,00,56,11.60
2017,01,10,00,57,11.20
2017,01,10,00,58,12.90
2017,01,10,00,59,9.20
2017,01,10,01,00,11.40
2017,01,10,01,01,10.50
2017,01,10,01,02,9.40
2017,01,10,01,03,12.20
2017,01,10,01,04,11.20
2017,01,10,01,05,11.80
2017,01,10,01,06,12.90
2017,01,10,01,07,11.00
2017,01,10,01,08,14.00
2017,01,10,01,09,11.70
2017,01,10,01,10,12.80
2017,01,10,01,11,13.90
2017,01,10,01,12,10.20
2017,01,10,01,13,8.40
2017,01,10,01,14,14.30
2017,01,10,01,15,11.30
2017,01,10,01,16,9.80
2017,01,10,01,17,10.10
2017,01,10,01,18,10.20
2017,01,10,01,19,11.00
2017,01,10,01,20,13.00
2017,01,10,01,21,10.70
2017,01,10,01,22,7.90
2017,01,10,01,23,8.70
2017,01,10,01,24,9.80
2017,01,10,01,25,10.90
2017,01,10,01,26,7.60
2017,01,10,01,27,8.00
2017,01,10,01,28,8.40
2017,01,10,01,29,8.30
2017,01,10,01,30,6.80
2017,01,10,01,31,7.60
2017,01,10,01,32,6.90
2017,01,10,01,33,10.90
2017,01,10,01,34,11.40
2017,01,10,01,35,9.70
2017,01,10,01,36,11.40
2017,01,10,01,37,9.80
2017,01,10,01,38,9.40
2017,01,10,01,39,7.80
2017,01,10,01,40,9.40
2017,01,10,01,41,11.50
2017,01,10,01,42,13.90
2017,01,10,01,43,10.60
2017,01,10,01,44,9.50
2017,01,10,01,45,9.10
2017,01,10,01,46,6.60
2017,01,10,01,47,11.70
2017,01,10,01,48,7.60
2017,01,10,01,49,12.50
2017,01,10,01,50,10.10
2017,01,10,01,51,7.70
2017,01,10,01,52,10.40
2017,01,10,01,53,14.50
2017,01,10,01,54,13.10
2017,01,10,01,55,13.80
2017,01,10,01,56,8.30
2017,01,10,01,57,7.90
2017,01,10,01,58,9.80
2017,01,10,01,59,8.20
2017,01,10,02,00,9.10
2017,01,10,02,01,10.50
2017,01,10,02,02,14.80
2017,01,10,02,03,11.00
2017,01,10,02,04,8.60
2017,01,10,02,05,12.00
2017,01,10,02,06,7.30
2017,01,10,02,07,10.40
2017,01,10,02,08,7.30
2017,01,10,02,09,9.30
2017,01,10,02,10,8.70
2017,01,10,02,11,7.60
2017,01,10,02,12,12.30
2017,01,10,02,13,13.40
2017,01,10,02,14,12.30
2017,01,10,02,15,10.10
2017,01,10,02,16,9.30
2017,01,10,02,17,6.40
2017,01,10,02,18,10.10
2017,01,10,02,19,10.40
2017,01,10,02,20,12.20
2017,01,10,02,21,10.20
2017,01,10,02,22,9.80
2017,01,10,02,23,11.90
2017,01,10,02,24,12.00
2017,01,10,02,25,14.60
2017,01,10,02,26,11.70
2017,01,10,02,27,17.60
2017,01,10,02,28,12.90
2017,01,10,02,29,12.50
2017,01,10,02,30,13.50
2017,01,10,02,31,16.20
2017,01,10,02,32,11.10
2017,01,10,02,33,15.20
2017,01,10,02,34,11.30
2017,01,10,02,35,14.00
2017,01,10,02,36,10.60
2017,01,10,02,37,7.10
2017,01,10,02,38,11.00
2017,01,10,02,39,11.40
2017,01,10,02,40,11.30
2017,01,10,02,41,10.50
2017,01,10,02,42,9.70
2017,01,10,02,43,15.20
2017,01,10,02,44,17.80
2017,01,10,02,45,17.40
2017,01,10,02,46,14.60
2017,01,10,02,47,8.20
2017,01,10,02,48,11.80
2017,01,10,02,49,10.50
2017,01,10,02,50,12.00
2017,01,10,02,51,14.80
2017,01,10,02,52,14.20
2017,01,10,02,53,18.10
2017,01,10,02,54,15.90
2017,01,10,02,55,14.40
2017,01,10,02,56,11.10
2017,01,10,02,57,10.90
2017,01,10,02,58,19.70
2017,01,10,02,59,16.90
2017,01,10,03,00,16.20
2017,01,10,03,01,11.90
2017,01,10,03,02,16.80
2017,01,10,03,03,15.70
2017,01,10,03,04,12.10
2017,01,10,03,05,16.20
2017,01,10,03,06,11.80
2017,01,10,03,07,11.50
2017,01,10,03,08,14.30
2017,01,10,03,09,17.20
2017,01,10,03,10,9.00
2017,01,10,03,11,10.60
2017,01,10,03,12,9.70
2017,01,10,03,13,17.90
2017,01,10,03,14,16.70
2017,01,10,03,15,17.20
2017,01,10,03,16,18.50
2017,01,10,03,17,11.00
2017,01,10,03,18,14.60
2017,01,10,03,19,15.20
2017,01,10,03,20,11.70
2017,01,10,03,21,12.70
2017,01,10,03,22,16.70
2017,01,10,03,23,14.70
2017,01,10,03,24,16.70
2017,01,10,03,25,13.50
2017,01,10,03,26,12.80
2017,01,10,03,27,8.20
2017,01,10,03,28,16.20
2017,01,10,03,29,16.20
2017,01,10,03,30,15.10
2017,01,10,03,31,14.60
2017,01,10,03,32,12.40
2017,01,10,03,33,13.40
2017,01,10,03,34,15.40
2017,01,10,03,35,12.20
2017,01,10,03,36,13.40
2017,01,10,03,37,12.00
2017,01,10,03,38,12.60
2017,01,10,03,39,11.10
2017,01,10,03,40,6.80
2017,01,10,03,41,17.70
2017,01,10,03,42,12.70
2017,01,10,03,43,12.50
2017,01,10,03,44,9.50
2017,01,10,03,45,11.70
2017,01,10,03,46,13.90
2017,01,10,03,47,12.70
2017,01,10,03,48,13.10
2017,01,10,03,49,13.60
2017,01,10,03,50,13.20
2017,01,10,03,51,9.90
2017,01,10,03,52,15.60
2017,01,10,03,53,12.50
2017,01,10,03,54,18.00
2017,01,10,03,55,9.60
2017,01,10,03,56,12.00
2017,01,10,03,57,13.90
2017,01,10,03,58,13.90
2017,01,10,03,59,7.60
2017,01,10,04,00,10.20
2017,01,10,04,01,14.50
2017,01,10,04,02,13.60
2017,01,10,04,03,14.80
2017,01,10,04,04,11.50
2017,01,10,04,05,10.50
2017,01,10,04,06,9.00
2017,01,10,04,07,9.00
2017,01,10,04,08,11.00
2017,01,10,04,09,12.30
2017,01,10,04,10,10.80
2017,01,10,04,11,13.60
2017,01,10,04,12,10.50
2017,01,10,04,13,14.20
2017,01,10,04,14,10.00
2017,01,10,04,15,11.20
2017,01,10,04,16,6.90
2017,01,10,04,17,12.60
2017,01,10,04,18,11.00
2017,01,10,04,19,13.20
2017,01,10,04,20,12.60
2017,01,10,04,21,15.00
2017,01,10,04,22,7.30
2017,01,10,04,23,11.30
2017,01,10,04,24,12.20
2017,01,10,04,25,11.30
2017,01,10,04,26,11.20
2017,01,10,04,27,8.50
2017,01,10,04,28,7.60
2017,01,10,04,29,9.30
2017,01,10,04,30,7.70
2017,01,10,04,31,12.10
2017,01,10,04,32,10.40
2017,01,10,04,33,11.20
2017,01,10,04,34,9.70
2017,01,10,04,35,12.70
2017,01,10,04,36,8.10
2017,01,10,04,37,6.20
2017,01,10,04,38,5.70
2017,01,10,04,39,8.40
2017,01,10,04,40,8.10
2017,01,10,04,41,7.70
2017,01,10,04,42,11.80
2017,01,10,04,43,12.90
2017,01,10,04,44,10.40
2017,01,10,04,45,14.20
2017,01,10,04,46,10.30
2017,01,10,04,47,10.90
2017,01,10,04,48,12.70
2017,01,10,04,49,11.30
2017,01,10,04,50,12.70
2017,01,10,04,51,17.60
2017,01,10,04,52,14.40
2017,01,10,04,53,11.60
2017,01,10,04,54,12.50
2017,01,10,04,55,15.70
2017,01,10,04,56,14.60
2017,01,10,04,57,13.50
2017,01,10,04,58,12.20
2017,01,10,04,59,15.60
2017,01,10,05,00,12.40
2017,01,10,05,01,9.40
2017,01,10,05,02,12.50
2017,01,10,05,03,13.10
2017,01,10,05,04,18.50
2017,01,10,05,05,16.40
2017,01,10,05,06,15.20
2017,01,10,05,07,16.80
2017,01,10,05,08,10.90
2017,01,10,05,09,16.90
2017,01,10,05,10,12.30
2017,01,10,05,11,15.70
2017,01,10,05,12,13.50
2017,01,10,05,13,15.40
2017,01,10,05,14,16.50
2017,01,10,05,15,13.20
2017,01,10,05,16,16.60
2017,01,10,05,17,18.50
2017,01,10,05,18,14.30
2017,01,10,05,19,18.50
2017,01,10,05,20,15.90
2017,01,10,05,21,17.60
2017,01,10,05,22,16.00
2017,01,10,05,23,16.80
2017,01,10,05,24,19.50
2017,01,10,05,25,14.60
2017,01,10,05,26,18.40
2017,01,10,05,27,17.00
2017,01,10,05,28,15.80
2017,01,10,05,29,16.30
2017,01,10,05,30,16.50
2017,01,10,05,31,13.90
2017,01,10,05,32,16.00
2017,01,10,05,33,14.60
2017,01,10,05,34,12.10
2017,01,10,05,35,17.60
2017,01,10,05,36,17.40
2017,01,10,05,37,17.50
2017,01,10,05,38,18.10
2017,01,10,05,39,16.20
2017,01,10,05,40,18.00
2017,01,10,05,41,14.50
2017,01,10,05,42,16.40
2017,01,10,05,43,15.40
2017,01,10,05,44,10.70
2017,01,10,05,45,16.00
2017,01,10,05,46,15.10
2017,01,10,05,47,14.30
2017,01,10,05,48,16.70
2017,01,10,05,49,16.10
2017,01,10,05,50,13.10
2017,01,10,05,51,15.70
2017,01,10,05,52,14.60
2017,01,10,05,53,12.90
2017,01,10,05,54,15.80
2017,01,10,05,55,18.90
2017,01,10,05,56,15.00
2017,01,10,05,57,10.10
2017,01,10,05,58,11.50
2017,01,10,05,59,14.90
2017,01,10,06,00,9.50
2017,01,10,06,01,10.40
2017,01,10,06,02,8.00
2017,01,10,06,03,11.50
2017,01,10,06,04,15.20
2017,01,10,06,05,13.60
2017,01,10,06,06,12.70
2017,01,10,06,07,12.70
2017,01,10,06,08,15.00
2017,01,10,06,09,16.20
2017,01,10,06,10,9.50
2017,01,10,06,11,13.30
2017,01,10,06,12,17.80
2017,01,10,06,13,18.60
2017,01,10,06,14,13.70
2017,01,10,06,15,13.60
2017,01,10,06,16,16.40
2017,01,10,06,17,17.90
2017,01,10,06,18,15.00
2017,01,10,06,19,17.50
2017,01,10,06,20,17.70
2017,01,10,06,21,13.30
2017,01,10,06,22,14.30
2017,01,10,06,23,16.00
2017,01,10,06,24,20.00
2017,01,10,06,25,22.00
2017,01,10,06,26,18.80
2017,01,10,06,27,11.60
2017,01,10,06,28,15.50
2017,01,10,06,29,16.30
2017,01,10,06,30,18.80
2017,01,10,06,31,20.60
2017,01,10,06,32,22.50
2017,01,10,06,33,22.40
2017,01,10,06,34,18.20
2017,01,10,06,35,20.60
2017,01,10,06,36,22.00
2017,01,10,06,37,17.10
2017,01,10,06,38,21.30
2017,01,10,06,39,17.90
2017,01,10,06,40,18.00
2017,01,10,06,41,19.50
2017,01,10,06,42,20.40
2017,01,10,06,43,21.10
2017,01,10,06,44,21.70
2017,01,10,06,45,23.90
2017,01,10,06,46,16.60
2017,01,10,06,47,18.40
2017,01,10,06,48,16.60
2017,01,10,06,49,16.90
2017,01,10,06,50,15.80
2017,01,10,06,51,20.80
2017,01,10,06,52,19.20
2017,01,10,06,53,14.30
2017,01,10,06,54,9.90
2017,01,10,06,55,11.10
2017,01,10,06,56,19.40
2017,01,10,06,57,11.50
2017,01,10,06,58,14.30
2017,01,10,06,59,15.70
2017,01,10,07,00,15.90
2017,01,10,07,01,16.30
2017,01,10,07,02,14.60
2017,01,10,07,03,11.40
2017,01,10,07,04,12.80
2017,01,10,07,05,13.60
2017,01,10,07,06,13.50
2017,01,10,07,07,17.70
2017,01,10,07,08,19.80
2017,01,10,07,09,21.10
2017,01,10,07,10,18.10
2017,01,10,07,11,18.80
2017,01,10,07,12,18.70
2017,01,10,07,13,16.10
2017,01,10,07,14,16.30
2017,01,10,07,15,17.30
2017,01,10,07,16,20.50
2017,01,10,07,17,18.10
2017,01,10,07,18,10.70
2017,01,10,07,19,14.50
2017,01,10,07,20,14.20
2017,01,10,07,21,15.10
2017,01,10,07,22,17.10
2017,01,10,07,23,17.00
2017,01,10,07,24,17.20
2017,01,10,07,25,13.30
2017,01,10,07,26,14.90
2017,01,10,07,27,22.20
2017,01,10,07,28,19.20
2017,01,10,07,29,26.90
2017,01,10,07,30,23.00
2017,01,10,07,31,21.00
2017,01,10,07,32,24.60
2017,01,10,07,33,21.00
2017,01,10,07,34,23.70
2017,01,10,07,35,21.20
2017,01,10,07,36,25.40
2017,01,10,07,37,16.70
2017,01,10,07,38,18.50
2017,01,10,07,39,21.90
2017,01,10,07,40,21.50
2017,01,10,07,41,20.50
2017,01,10,07,42,22.30
2017,01,10,07,43,20.30
2017,01,10,07,44,22.70
2017,01,10,07,45,18.60
2017,01,10,07,46,25.70
2017,01,10,07,47,20.60
2017,01,10,07,48,16.90
2017,01,10,07,49,20.50
2017,01,10,07,50,13.70
2017,01,10,07,51,16.60
2017,01,10,07,52,19.80
2017,01,10,07,53,24.90
2017,01,10,07,54,20.60
2017,01,10,07,55,22.70
2017,01,10,07,56,27.30
2017,01,10,07,57,25.10
2017,01,10,07,58,19.70
2017,01,10,07,59,22.60
2017,01,10,08,00,20.60
2017,01,10,08,01,33.80
2017,01,10,08,02,26.20
2017,01,10,08,03,22.10
2017,01,10,08,04,28.10
2017,01,10,08,05,19.10
2017,01,10,08,06,28.80
2017,01,10,08,07,25.90
2017,01,10,08,08,21.60
2017,01,10,08,09,25.00
2017,01,10,08,10,28.80
2017,01,10,08,11,28.10
2017,01,10,08,12,26.80
2017,01,10,08,13,28.50
2017,01,10,08,14,22.90
2017,01,10,08,15,22.00
2017,01,10,08,16,24.30
2017,01,10,08,17,31.50
2017,01,10,08,18,28.30
2017,01,10,08,19,29.70
2017,01,10,08,20,28.30
2017,01,10,08,21,23.00
2017,01,10,08,22,27.10
2017,01,10,08,23,21.90
2017,01,10,08,24,22.00
2017,01,10,08,25,22.30
2017,01,10,08,26,26.90
2017,01,10,08,27,20.40
2017,01,10,08,28,28.10
2017,01,10,08,29,23.90
2017,01,10,08,30,28.80
2017,01,10,08,31,29.20
2017,01,10,08,32,26.10
2017,01,10,08,33,20.40
2017,01,10,08,34,18.50
2017,01,10,08,35,26.60
2017,01,10,08,36,27.20
2017,01,10,08,37,21.10
2017,01,10,08,38,17.80
2017,01,10,08,39,21.10
2017,01,10,08,40,14.30
2017,01,10,08,41,18.70
2017,01,10,08,42,24.90
2017,01,10,08,43,22.90
2017,01,10,08,44,25.90
2017,01,10,08,45,18.10
2017,01,10,08,46,24.10
2017,01,10,08,47,20.20
2017,01,10,08,48,29.00
2017,01,10,08,49,23.50
2017,01,10,08,50,21.80
2017,01,10,08,51,23.60
2017,01,10,08,52,23.70
2017,01,10,08,53,23.10
2017,01,10,08,54,22.40
2017,01,10,08,55,20.70
2017,01,10,08,56,21.60
2017,01,10,08,57,23.90
2017,01,10,08,58,23.20
2017,01,10,08,59,19.20
2017,01,10,09,00,14.80
2017,01,10,09,01,30.20
2017,01,10,09,02,29.90
2017,01,10,09,03,28.30
2017,01,10,09,04,25.00
2017,01,10,09,05,24.20
2017,01,10,09,06,22.50
2017,01,10,09,07,19.00
2017,01,10,09,08,22.80
2017,01,10,09,09,21.20
2017,01,10,09,10,25.00
2017,01,10,09,11,27.10
2017,01,10,09,12,20.40
2017,01,10,09,13,22.80
2017,01,10,09,14,22.30
2017,01,10,09,15,21.40
2017,01,10,09,16,17.40
2017,01,10,09,17,27.70
2017,01,10,09,18,29.40
2017,01,10,09,19,27.70
2017,01,10,09,20,27.10
2017,01,10,09,21,26.10
2017,01,10,09,22,23.70
2017,01,10,09,23,29.10
2017,01,10,09,24,26.80
2017,01,10,09,25,22.70
2017,01,10,09,26,22.00
2017,01,10,09,27,20.30
2017,01,10,09,28,24.90
2017,01,10,09,29,24.50
2017,01,10,09,30,30.30
2017,01,10,09,31,30.20
2017,01,10,09,32,27.40
2017,01,10,09,33,23.90
2017,01,10,09,34,20.40
2017,01,10,09,35,27.40
2017,01,10,09,36,23.00
2017,01,10,09,37,25.00
2017,01,10,09,38,18.10
2017,01,10,09,39,18.00
2017,01,10,09,40,21.30
2017,01,10,09,41,23.60
2017,01,10,09,42,19.80
2017,01,10,09,43,18.40
2017,01,10,09,44,16.90
2017,01,10,09,45,19.40
2017,01,10,09,46,25.60
2017,01,10,09,47,22.50
2017,01,10,09,48,18.00
2017,01,10,09,49,26.50
2017,01,10,09,50,19.60
2017,01,10,09,51,16.40
2017,01,10,09,52,20.60
2017,01,10,09,53,25.60
2017,01,10,09,54,30.10
2017,01,10,09,55,30.30
2017,01,10,09,56,24.50
2017,01,10,09,57,17.80
2017,01,10,09,58,29.30
2017,01,10,09,59,27.40
2017,01,10,10,00,23.10
2017,01,10,10,01,22.20
2017,01,10,10,02,25.70
2017,01,10,10,03,25.50
2017,01,10,10,04,22.30
2017,01,10,10,05,28.10
2017,01,10,10,06,25.20
2017,01,10,10,07,25.70
2017,01,10,10,08,29.80
2017,01,10,10,09,34.20
2017,01,10,10,10,27.60
2017,01,10,10,11,29.90
2017,01,10,10,12,27.20
2017,01,10,10,13,29.50
2017,01,10,10,14,21.80
2017,01,10,10,15,29.40
2017,01,10,10,16,20.20
2017,01,10,10,17,31.90
2017,01,10,10,18,35.40
2017,01,10,10,19,22.70
2017,01,10,10,20,20.10
2017,01,10,10,21,20.70
2017,01,10,10,22,26.10
2017,01,10,10,23,27.30
2017,01,10,10,24,27.00
2017,01,10,10,25,21.90
2017,01,10,10,26,23.30
2017,01,10,10,27,30.40
2017,01,10,10,28,29.50
2017,01,10,10,29,33.60
2017,01,10,10,30,22.40
2017,01,10,10,31,24.90
2017,01,10,10,32,26.70
2017,01,10,10,33,19.00
2017,01,10,10,34,23.30
2017,01,10,10,35,26.70
2017,01,10,10,36,30.70
2017,01,10,10,37,25.00
2017,01,10,10,38,30.40
2017,01,10,10,39,31.30
2017,01,10,10,40,32.00
2017,01,10,10,41,27.30
2017,01,10,10,42,26.40
2017,01,10,10,43,23.50
2017,01,10,10,44,23.90
2017,01,10,10,45,25.70
2017,01,10,10,46,22.60
2017,01,10,10,47,30.40
2017,01,10,10,48,35.80
2017,01,10,10,49,24.90
2017,01,10,10,50,23.40
2017,01,10,10,51,17.70
2017,01,10,10,52,24.60
2017,01,10,10,53,21.50
2017,01,10,10,54,18.20
2017,01,10,10,55,25.30
2017,01,10,10,56,19.60
2017,01,10,10,57,23.10
2017,01,10,10,58,29.80
2017,01,10,10,59,21.90
2017,01,10,11,00,23.80
2017,01,10,11,01,19.60
2017,01,10,11,02,27.90
2017,01,10,11,03,22.20
2017,01,10,11,04,18.40
2017,01,10,11,05,22.50
2017,01,10,11,06,17.60
2017,01,10,11,07,21.30
2017,01,10,11,08,18.80
2017,01,10,11,09,14.60
2017,01,10,11,10,19.80
2017,01,10,11,11,21.90
2017,01,10,11,12,31.20
2017,01,10,11,13,24.30
2017,01,10,11,14,25.30
2017,01,10,11,15,20.00
2017,01,10,11,16,29.70
2017,01,10,11,17,30.00
2017,01,10,11,18,19.90
2017,01,10,11,19,30.90
2017,01,10,11,20,30.70
2017,01,10,11,21,25.40
2017,01,10,11,22,23.20
2017,01,10,11,23,23.90
2017,01,10,11,24,21.60
2017,01,10,11,25,22.00
2017,01,10,11,26,34.00
2017,01,10,11,27,25.70
2017,01,10,11,28,24.40
2017,01,10,11,29,26.20
2017,01,10,11,30,18.60
2017,01,10,11,31,14.90
2017,01,10,11,32,17.30
2017,01,10,11,33,23.20
2017,01,10,11,34,18.70
2017,01,10,11,35,22.90
2017,01,10,11,36,23.10
2017,01,10,11,37,22.40
2017,01,10,11,38,19.30
2017,01,10,11,39,31.80
2017,01,10,11,40,30.60
2017,01,10,11,41,25.00
2017,01,10,11,42,35.00
2017,01,10,11,43,31.00
2017,01,10,11,44,23.10
2017,01,10,11,45,19.80
2017,01,10,11,46,30.00
2017,01,10,11,47,25.40
2017,01,10,11,48,18.40
2017,01,10,11,49,25.50
2017,01,10,11,50,27.90
2017,01,10,11,51,29.60
2017,01,10,11,52,24.90
2017,01,10,11,53,26.60
2017,01,10,11,54,26.30
2017,01,10,11,55,27.70
2017,01,10,11,56,28.80
2017,01,10,11,57,25.40
2017,01,10,11,58,27.20
2017,01,10,11,59,31.40
2017,01,10,12,00,20.70
2017,01,10,12,01,23.70
2017,01,10,12,02,29.30
2017,01,10,12,03,29.70
2017,01,10,12,04,29.90
2017,01,10,12,05,27.80
2017,01,10,12,06,26.80
2017,01,10,12,07,22.30
2017,01,10,12,08,35.10
2017,01,10,12,09,26.50
2017,01,10,12,10,23.80
2017,01,10,12,11,23.60
2017,01,10,12,12,29.40
2017,01,10,12,13,27.00
2017,01,10,12,14,35.00
2017,01,10,12,15,34.30
2017,01,10,12,16,26.70
2017,01,10,12,17,31.70
2017,01,10,12,18,34.00
2017,01,10,12,19,29.20
2017,01,10,12,20,28.10
2017,01,10,12,21,28.20
2017,01,10,12,22,28.90
2017,01,10,12,23,36.20
2017,01,10,12,24,29.20
2017,01,10,12,25,33.40
2017,01,10,12,26,34.10
2017,01,10,12,27,29.50
2017,01,10,12,28,27.40
2017,01,10,12,29,24.50
2017,01,10,12,30,30.90
2017,01,10,12,31,33.30
2017,01,10,12,32,29.30
2017,01,10,12,33,33.60
2017,01,10,12,34,21.50
2017,01,10,12,35,26.20
2017,01,10,12,36,28.90
2017,01,10,12,37,28.60
2017,01,10,12,38,35.00
2017,01,10,12,39,36.50
2017,01,10,12,40,29.70
2017,01,10,12,41,26.20
2017,01,10,12,42,37.80
2017,01,10,12,43,25.60
2017,01,10,12,44,29.90
2017,01,10,12,45,25.70
2017,01,10,12,46,24.50
2017,01,10,12,47,30.60
2017,01,10,12,48,29.20
2017,01,10,12,49,20.70
2017,01,10,12,50,30.60
2017,01,10,12,51,28.30
2017,01,10,12,52,25.70
2017,01,10,12,53,33.00
2017,01,10,12,54,20.10
2017,01,10,12,55,30.60
2017,01,10,12,56,25.20
2017,01,10,12,57,33.00
2017,01,10,12,58,40.70
2017,01,10,12,59,34.80
2017,01,10,13,00,34.90
2017,01,10,13,01,33.20
2017,01,10,13,02,30.40
2017,01,10,13,03,32.90
2017,01,10,13,04,37.70
2017,01,10,13,05,24.70
2017,01,10,13,06,26.50
2017,01,10,13,07,30.70
2017,01,10,13,08,37.20
2017,01,10,13,09,24.80
2017,01,10,13,10,32.80
2017,01,10,13,11,24.60
2017,01,10,13,12,32.70
2017,01,10,13,13,28.20
2017,01,10,13,14,32.50
2017,01,10,13,15,36.30
2017,01,10,13,16,35.20
2017,01,10,13,17,31.30
2017,01,10,13,18,30.30
2017,01,10,13,19,41.00
2017,01,10,13,20,40.90
2017,01,10,13,21,37.90
2017,01,10,13,22,41.00
2017,01,10,13,23,31.30
2017,01,10,13,24,31.60
2017,01,10,13,25,29.90
2017,01,10,13,26,24.50
2017,01,10,13,27,30.70
2017,01,10,13,28,25.20
2017,01,10,13,29,26.20
2017,01,10,13,30,26.00
2017,01,10,13,31,30.90
2017,01,10,13,32,30.60
2017,01,10,13,33,33.90
2017,01,10,13,34,34.60
2017,01,10,13,35,29.60
2017,01,10,13,36,34.30
2017,01,10,13,37,32.40
2017,01,10,13,38,22.10
2017,01,10,13,39,29.30
2017,01,10,13,40,25.90
2017,01,10,13,41,26.90
2017,01,10,13,42,31.30
2017,01,10,13,43,30.80
2017,01,10,13,44,35.30
2017,01,10,13,45,25.20
2017,01,10,13,46,24.40
2017,01,10,13,47,25.30
2017,01,10,13,48,19.30
2017,01,10,13,49,23.00
2017,01,10,13,50,21.90
2017,01,10,13,51,20.70
2017,01,10,13,52,30.30
2017,01,10,13,53,24.60
2017,01,10,13,54,26.00
2017,01,10,13,55,24.50
2017,01,10,13,56,24.70
2017,01,10,13,57,27.40
2017,01,10,13,58,27.00
2017,01,10,13,59,29.30
2017,01,10,14,00,31.80
2017,01,10,14,01,27.20
2017,01,10,14,02,23.90
2017,01,10,14,03,25.30
2017,01,10,14,04,24.00
2017,01,10,14,05,20.80
2017,01,10,14,06,21.80
2017,01,10,14,07,26.30
2017,01,10,14,08,14.90
2017,01,10,14,09,17.80
2017,01,10,14,10,25.80
2017,01,10,14,11,24.50
2017,01,10,14,12,26.00
2017,01,10,14,13,24.20
2017,01,10,14,14,21.40
2017,01,10,14,15,24.60
2017,01,10,14,16,24.70
2017,01,10,14,17,29.70
2017,01,10,14,18,31.50
2017,01,10,14,19,32.10
2017,01,10,14,20,27.70
2017,01,10,14,21,25.00
2017,01,10,14,22,25.80
2017,01,10,14,23,29.00
2017,01,10,14,24,28.90
2017,01,10,14,25,21.50
2017,01,10,14,26,26.00
2017,01,10,14,27,27.50
2017,01,10,14,28,25.20
2017,01,10,14,29,31.70
2017,01,10,14,30,30.10
2017,01,10,14,31,32.80
2017,01,10,14,32,29.30
2017,01,10,14,33,28.00
2017,01,10,14,34,33.40
2017,01,10,14,35,34.40
2017,01,10,14,36,30.60
2017,01,10,14,37,28.20
2017,01,10,14,38,33.80
2017,01,10,14,39,27.40
2017,01,10,14,40,26.90
2017,01,10,14,41,34.40
2017,01,10,14,42,43.10
2017,01,10,14,43,30.40
2017,01,10,14,44,32.30
2017,01,10,14,45,33.50
2017,01,10,14,46,19.80
2017,01,10,14,47,22.30
2017,01,10,14,48,25.70
2017,01,10,14,49,37.00
2017,01,10,14,50,25.80
2017,01,10,14,51,27.80
2017,01,10,14,52,31.00
2017,01,10,14,53,27.90
2017,01,10,14,54,35.30
2017,01,10,14,55,37.60
2017,01,10,14,56,39.20
2017,01,10,14,57,26.40
2017,01,10,14,58,31.60
2017,01,10,14,59,28.20
2017,01,10,15,00,40.50
2017,01,10,15,01,26.10
2017,01,10,15,02,29.70
2017,01,10,15,03,37.90
2017,01,10,15,04,40.80
2017,01,10,15,05,33.10
2017,01,10,15,06,34.50
2017,01,10,15,07,31.80
2017,01,10,15,08,32.70
2017,01,10,15,09,35.70
2017,01,10,15,10,27.40
2017,01,10,15,11,25.30
2017,01,10,15,12,31.70
2017,01,10,15,13,34.10
2017,01,10,15,14,26.40
2017,01,10,15,15,23.80
2017,01,10,15,16,32.40
2017,01,10,15,17,26.70
2017,01,10,15,18,24.10
2017,01,10,15,19,27.90
2017,01,10,15,20,29.50
2017,01,10,15,21,32.10
2017,01,10,15,22,25.40
2017,01,10,15,23,32.70
2017,01,10,15,24,32.90
2017,01,10,15,25,39.10
2017,01,10,15,26,32.10
2017,01,10,15,27,25.10
2017,01,10,15,28,28.40
2017,01,10,15,29,27.30
2017,01,10,15,30,29.60
2017,01,10,15,31,24.90
2017,01,10,15,32,18.00
2017,01,10,15,33,24.90
2017,01,10,15,34,26.00
2017,01,10,15,35,21.30
2017,01,10,15,36,32.40
2017,01,10,15,37,33.10
2017,01,10,15,38,26.40
2017,01,10,15,39,26.50
2017,01,10,15,40,27.10
2017,01,10,15,41,25.70
2017,01,10,15,42,33.00
2017,01,10,15,43,37.50
2017,01,10,15,44,32.00
2017,01,10,15,45,24.90
2017,01,10,15,46,27.10
2017,01,10,15,47,27.00
2017,01,10,15,48,19.20
2017,01,10,15,49,20.70
2017,01,10,15,50,36.30
2017,01,10,15,51,31.50
2017,01,10,15,52,32.40
2017,01,10,15,53,32.50
2017,01,10,15,54,32.00
2017,01,10,15,55,26.60
2017,01,10,15,56,28.00
2017,01,10,15,57,27.60
2017,01,10,15,58,28.10
2017,01,10,15,59,26.50
2017,01,10,16,00,31.30
2017,01,10,16,01,25.10
2017,01,10,16,02,30.80
2017,01,10,16,03,32.80
2017,01,10,16,04,31.50
2017,01,10,16,05,36.70
2017,01,10,16,06,38.80
2017,01,10,16,07,36.90
2017,01,10,16,08,33.90
2017,01,10,16,09,33.30
2017,01,10,16,10,33.20
2017,01,10,16,11,34.60
2017,01,10,16,12,38.70
2017,01,10,16,13,32.30
2017,01,10,16,14,28.80
2017,01,10,16,15,32.50
2017,01,10,16,16,29.60
2017,01,10,16,17,25.10
2017,01,10,16,18,28.10
2017,01,10,16,19,29.80
2017,01,10,16,20,27.50
2017,01,10,16,21,32.80
2017,01,10,16,22,36.90
2017,01,10,16,23,29.90
2017,01,10,16,24,39.70
2017,01,10,16,25,36.60
2017,01,10,16,26,27.80
2017,01,10,16,27,22.70
2017,01,10,16,28,26.30
2017,01,10,16,29,23.80
2017,01,10,16,30,33.30
2017,01,10,16,31,30.00
2017,01,10,16,32,33.00
2017,01,10,16,33,34.30
2017,01,10,16,34,30.30
2017,01,10,16,35,32.50
2017,01,10,16,36,34.00
2017,01,10,16,37,31.20
2017,01,10,16,38,34.70
2017,01,10,16,39,34.10
2017,01,10,16,40,33.60
2017,01,10,16,41,33.70
2017,01,10,16,42,35.00
2017,01,10,16,43,28.80
2017,01,10,16,44,29.00
2017,01,10,16,45,30.00
2017,01,10,16,46,29.10
2017,01,10,16,47,35.00
2017,01,10,16,48,30.60
2017,01,10,16,49,30.80
2017,01,10,16,50,28.00
2017,01,10,16,51,41.10
2017,01,10,16,52,27.80
2017,01,10,16,53,25.00
2017,01,10,16,54,25.00
2017,01,10,16,55,34.90
2017,01,10,16,56,33.70
2017,01,10,16,57,38.30
2017,01,10,16,58,33.40
2017,01,10,16,59,38.80
2017,01,10,17,00,33.30
2017,01,10,17,01,33.20
2017,01,10,17,02,33.40
2017,01,10,17,03,37.60
2017,01,10,17,04,27.00
2017,01,10,17,05,27.10
2017,01,10,17,06,35.30
2017,01,10,17,07,31.60
2017,01,10,17,08,35.30
2017,01,10,17,09,38.40
2017,01,10,17,10,39.00
2017,01,10,17,11,34.10
2017,01,10,17,12,37.60
2017,01,10,17,13,34.20
2017,01,10,17,14,30.20
2017,01,10,17,15,27.40
2017,01,10,17,16,26.30
2017,01,10,17,17,29.90
2017,01,10,17,18,33.40
2017,01,10,17,19,39.80
2017,01,10,17,20,34.60
2017,01,10,17,21,35.80
2017,01,10,17,22,34.70